Weather History for KMZG - August, 2014

Change the Weather History Date:

Wednesday, August 20, 2014

  Actual Average Record
Temperature  
Mean Temperature 86 °F -  
Max Temperature 87 °F - - ()
Min Temperature 84 °F - - ()
Cooling Degree Days 20    
Growing Degree Days 36 (Base 50)    
Moisture  
Dew Point 78 °F    
Average Humidity 76    
Maximum Humidity 84    
Minimum Humidity 70    
Precipitation  
Precipitation 0.00 in - - ()
Sea Level Pressure  
Sea Level Pressure 29.95 in    
Wind  
Wind Speed 12 mph (SSE)    
Max Wind Speed 18 mph    
Max Gust Speed 25 mph    
Visibility 10 miles    
Events      
T = Trace of Precipitation, MM = Missing Value Source: NWS Daily Summary

Daily Weather History Graph

Daily Weather History Graph

Search for Another Location

Airport or City:

Trip Planner

Search our weather history database for the weather conditions in past years. The results will help you decide how hot, cold, wet, or windy it might be!

Date:

Astronomy

Aug. 20, 2014 Rise Set
Actual Time 6:57 AM CDT 7:58 PM CDT
Civil Twilight 6:33 AM CDT 8:22 PM CDT
Nautical Twilight 6:04 AM CDT 8:50 PM CDT
Astronomical Twilight 5:35 AM CDT 9:20 PM CDT
Moon 2:47 AM CDT (8/20) 4:35 PM CDT (8/20)
Length of Visible Light 13h 48m
Length of Day
13h 00m
Waning Crescent, 20% of the Moon is Illuminated
Aug 20
Waning Crescent
Aug 25
New
Sep 2
First Quarter
Sep 8
Full
Sep 15
Last Quarter

Hourly Weather History & Observations

Time (CDT) Temp. Heat Index Dew Point Humidity Pressure Visibility Wind Dir Wind Speed Gust Speed Precip Events Conditions
12:35 AM 86.0 °F 96.9 °F 77.0 °F 74% 29.92 in 10.0 mi SE 8.1 mph 17.3 mph N/A   Clear
12:55 AM 86.0 °F 96.9 °F 77.0 °F 74% 29.92 in 10.0 mi SE 10.4 mph 19.6 mph N/A   Clear
1:15 AM 86.0 °F 96.9 °F 77.0 °F 74% 29.92 in 10.0 mi SE 13.8 mph - N/A   Clear
1:35 AM 86.0 °F 96.9 °F 77.0 °F 74% 29.92 in 10.0 mi SE 8.1 mph 18.4 mph N/A   Clear
1:55 AM 86.0 °F 96.9 °F 77.0 °F 74% 29.92 in 10.0 mi SE 11.5 mph 19.6 mph N/A   Clear
2:15 AM 86.0 °F 96.9 °F 77.0 °F 74% 29.92 in 10.0 mi SE 13.8 mph 19.6 mph N/A   Clear
2:35 AM 86.0 °F 96.9 °F 77.0 °F 74% 29.91 in 10.0 mi SSE 12.7 mph 19.6 mph N/A   Clear
2:55 AM 86.0 °F 96.9 °F 77.0 °F 74% 29.91 in 10.0 mi SE 13.8 mph 19.6 mph N/A   Clear
3:15 AM 86.0 °F 99.3 °F 78.8 °F 79% 29.91 in 10.0 mi SE 11.5 mph 18.4 mph N/A   Clear
3:35 AM 86.0 °F 96.9 °F 77.0 °F 74% 29.90 in 10.0 mi SE 16.1 mph 23.0 mph N/A   Clear
3:55 AM 86.0 °F 96.9 °F 77.0 °F 74% 29.90 in 10.0 mi SE 15.0 mph - N/A   Clear
4:15 AM 86.0 °F 96.9 °F 77.0 °F 74% 29.90 in 10.0 mi SE 15.0 mph - N/A   Clear
4:35 AM 86.0 °F 96.9 °F 77.0 °F 74% 29.90 in 10.0 mi SE 11.5 mph 21.9 mph N/A   Clear
4:55 AM 86.0 °F 99.3 °F 78.8 °F 79% 29.90 in 10.0 mi SSE 11.5 mph - N/A   Clear
5:15 AM 84.2 °F 94.1 °F 77.0 °F 79% 29.90 in 10.0 mi SSE 11.5 mph - N/A   Clear
5:35 AM 84.2 °F 94.1 °F 77.0 °F 79% 29.90 in 10.0 mi SSE 11.5 mph - N/A   Clear
5:55 AM 84.2 °F 96.1 °F 78.8 °F 84% 29.90 in 10.0 mi SSE 11.5 mph 18.4 mph N/A   Clear
6:15 AM 84.2 °F 94.1 °F 77.0 °F 79% 29.90 in 10.0 mi SSE 15.0 mph - N/A   Clear
6:35 AM 84.2 °F 94.1 °F 77.0 °F 79% 29.91 in 10.0 mi SSE 15.0 mph - N/A   Clear
6:55 AM 84.2 °F 94.1 °F 77.0 °F 79% 29.92 in 10.0 mi SSE 11.5 mph - N/A   Clear
7:15 AM 86.0 °F 99.3 °F 78.8 °F 79% 29.92 in 9.0 mi SSE 12.7 mph - N/A   Scattered Clouds
7:35 AM 86.0 °F 99.3 °F 78.8 °F 79% 29.93 in 10.0 mi SSE 11.5 mph - N/A   Partly Cloudy
7:55 AM 86.0 °F 96.9 °F 77.0 °F 74% 29.94 in 10.0 mi SSE 11.5 mph - N/A   Clear
8:15 AM 86.0 °F 96.9 °F 77.0 °F 74% 29.94 in 10.0 mi SSE 6.9 mph 16.1 mph N/A   Partly Cloudy
8:35 AM 86.0 °F 96.9 °F 77.0 °F 74% 29.95 in 9.0 mi SSE 11.5 mph - N/A   Clear
8:55 AM 86.0 °F 96.9 °F 77.0 °F 74% 29.95 in 9.0 mi SSE 10.4 mph - N/A   Clear
9:15 AM 86.0 °F 96.9 °F 77.0 °F 74% 29.96 in 10.0 mi SSE 9.2 mph 15.0 mph N/A   Clear
9:35 AM 86.0 °F 96.9 °F 77.0 °F 74% 29.97 in 10.0 mi SSE 11.5 mph - N/A   Partly Cloudy
9:55 AM 86.0 °F 96.9 °F 77.0 °F 74% 29.98 in 10.0 mi SSE 10.4 mph 17.3 mph N/A   Partly Cloudy
10:15 AM 87.8 °F 99.7 °F 77.0 °F 70% 29.98 in 10.0 mi SSE 11.5 mph - N/A   Partly Cloudy
10:35 AM 87.8 °F 102.5 °F 78.8 °F 75% 29.98 in 9.0 mi SSE 11.5 mph - N/A   Partly Cloudy
10:55 AM 87.8 °F 102.5 °F 78.8 °F 75% 29.99 in 10.0 mi SSE 10.4 mph - N/A   Partly Cloudy
11:15 AM 86.0 °F 99.3 °F 78.8 °F 79% 29.99 in 9.0 mi SSE 13.8 mph - N/A   Clear
11:35 AM 86.0 °F 96.9 °F 77.0 °F 74% 29.99 in 10.0 mi SSE 12.7 mph - N/A   Clear
11:55 AM 87.8 °F 99.7 °F 77.0 °F 70% 29.99 in 10.0 mi SSE 12.7 mph - N/A   Clear
12:15 PM 87.8 °F 102.5 °F 78.8 °F 75% 29.99 in 9.0 mi SSE 10.4 mph - N/A   Partly Cloudy
12:35 PM 87.8 °F 102.5 °F 78.8 °F 75% 29.99 in 10.0 mi SSE 11.5 mph 17.3 mph N/A   Scattered Clouds
12:55 PM 87.8 °F 99.7 °F 77.0 °F 70% 29.99 in 9.0 mi SSE 11.5 mph - N/A   Partly Cloudy
1:15 PM 87.8 °F 102.5 °F 78.8 °F 75% 29.99 in 10.0 mi SSE 11.5 mph 17.3 mph N/A   Scattered Clouds
1:35 PM 87.8 °F 102.5 °F 78.8 °F 75% 29.98 in 10.0 mi SSE 12.7 mph 18.4 mph N/A   Scattered Clouds
1:55 PM 87.8 °F 102.5 °F 78.8 °F 75% 29.98 in 10.0 mi SSE 12.7 mph - N/A   Clear
2:15 PM 87.8 °F 102.5 °F 78.8 °F 75% 29.97 in 10.0 mi SSE 13.8 mph - N/A   Scattered Clouds
2:35 PM 87.8 °F 102.5 °F 78.8 °F 75% 29.97 in 9.0 mi SSE 13.8 mph - N/A   Mostly Cloudy
2:55 PM 87.8 °F 102.5 °F 78.8 °F 75% 29.96 in 10.0 mi SSE 13.8 mph - N/A   Mostly Cloudy
3:15 PM 86.0 °F 99.3 °F 78.8 °F 79% 29.96 in 9.0 mi SSE 12.7 mph - N/A   Scattered Clouds
3:55 PM 87.8 °F 102.5 °F 78.8 °F 75% 29.95 in 10.0 mi SSE 11.5 mph - N/A   Scattered Clouds
4:15 PM 87.8 °F 102.5 °F 78.8 °F 75% 29.94 in 9.0 mi SSE 12.7 mph 19.6 mph N/A   Partly Cloudy
4:35 PM 87.8 °F 102.5 °F 78.8 °F 75% 29.94 in 10.0 mi SSE 13.8 mph - N/A   Clear
4:55 PM 87.8 °F 102.5 °F 78.8 °F 75% 29.93 in 10.0 mi SSE 15.0 mph - N/A   Clear
5:15 PM 87.8 °F 102.5 °F 78.8 °F 75% 29.93 in 10.0 mi SE 15.0 mph 21.9 mph N/A   Clear
5:35 PM 87.8 °F 99.7 °F 77.0 °F 70% 29.94 in 10.0 mi SE 13.8 mph 24.2 mph N/A   Scattered Clouds
5:55 PM 87.8 °F 99.7 °F 77.0 °F 70% 29.94 in 9.0 mi SSE 11.5 mph 24.2 mph N/A   Scattered Clouds
6:15 PM 86.0 °F 99.3 °F 78.8 °F 79% 29.94 in 10.0 mi SE 16.1 mph 23.0 mph N/A   Scattered Clouds
6:35 PM 86.0 °F 99.3 °F 78.8 °F 79% 29.94 in 10.0 mi SE 17.3 mph 25.3 mph N/A   Mostly Cloudy
6:55 PM 86.0 °F 99.3 °F 78.8 °F 79% 29.94 in 10.0 mi SE 18.4 mph 25.3 mph N/A   Scattered Clouds
7:15 PM 86.0 °F 99.3 °F 78.8 °F 79% 29.95 in 10.0 mi SE 17.3 mph - N/A   Scattered Clouds
7:35 PM 86.0 °F 99.3 °F 78.8 °F 79% 29.95 in 10.0 mi SE 16.1 mph 23.0 mph N/A   Scattered Clouds
7:55 PM 86.0 °F 96.9 °F 77.0 °F 74% 29.95 in 9.0 mi SE 16.1 mph - N/A   Partly Cloudy
8:15 PM 86.0 °F 99.3 °F 78.8 °F 79% 29.96 in 9.0 mi SE 13.8 mph 21.9 mph N/A   Scattered Clouds
8:35 PM 86.0 °F 99.3 °F 78.8 °F 79% 29.96 in 10.0 mi SE 9.2 mph 19.6 mph N/A   Partly Cloudy
8:55 PM 86.0 °F 99.3 °F 78.8 °F 79% 29.97 in 10.0 mi SE 9.2 mph 20.7 mph N/A   Clear
9:15 PM 86.0 °F 99.3 °F 78.8 °F 79% 29.98 in 10.0 mi SE 17.3 mph - N/A   Scattered Clouds
9:35 PM 86.0 °F 99.3 °F 78.8 °F 79% 29.99 in 9.0 mi SE 15.0 mph 21.9 mph N/A   Mostly Cloudy
9:55 PM 86.0 °F 101.9 °F 80.6 °F 84% 30.00 in 8.0 mi SE 12.7 mph 19.6 mph N/A   Partly Cloudy
10:15 PM 86.0 °F 101.9 °F 80.6 °F 84% 30.00 in 9.0 mi SE 13.8 mph 23.0 mph N/A   Partly Cloudy
10:35 PM 86.0 °F 101.9 °F 80.6 °F 84% 30.01 in 10.0 mi SSE 11.5 mph 18.4 mph N/A   Clear
10:55 PM 86.0 °F 99.3 °F 78.8 °F 79% 30.01 in 10.0 mi SE 13.8 mph 21.9 mph N/A   Clear
11:15 PM 86.0 °F 101.9 °F 80.6 °F 84% 30.01 in 10.0 mi SE 17.3 mph 24.2 mph N/A   Clear
11:35 PM 86.0 °F 101.9 °F 80.6 °F 84% 30.01 in 10.0 mi SE 17.3 mph 23.0 mph N/A   Partly Cloudy
11:55 PM 86.0 °F 101.9 °F 80.6 °F 84% 30.01 in 10.0 mi SSE 13.8 mph 21.9 mph N/A   Clear